Location: Rochester
(43.1610°N, 77.6109°W)
Time: 16:56:30
(UTC-05:00)

Envisat - Pass Details

Date: 20 December 2018
Orbit: 764 x 766 km, 98.2° (Epoch: 18 January)

Event Time Altitude Azimuth Distance (km) Brightness Sun altitude
Rises 17:14:30 0° 108° (ESE) 3,228 5.8 -6.7°
Reaches altitude 10° 17:18:23 10° 78° (ENE) 2,307 4.8 -7.3°
Maximum altitude 17:20:09 12° 58° (ENE) 2,182 4.7 -7.6°
Drops below altitude 10° 17:21:56 10° 37° (NE) 2,311 5.0 -7.9°
Sets 17:25:49 0° 7° (N) 3,243 5.9 -8.6°
